Location: �perlecques
(50.8057°N, 2.1521°E)
Time: 20:34:43
(UTC+00:00)

Tiros 1 - Pass Details

Date: 05 August 2021
Orbit: 630 x 663 km, 48.4° (Epoch: 28 September)

Event Time Altitude Azimuth Distance (km) Brightness Sun altitude
Rises 21:27:41 0° 280° (W) 2,977 11.3 -14.9°
Reaches altitude 10° 21:30:14 10° 270° (W) 2,058 10.2 -15.2°
Maximum altitude 21:34:24 31° 209° (SSW) 1,135 8.2 -15.6°
Enters shadow 21:36:05 24° 172° (S) 1,329 8.2 -15.7°
Drops below altitude 10° 21:38:30 10° 147° (SSE) 2,031 - -15.9°
Sets 21:41:01 0° 137° (SE) 2,932 - -16.2°
